Location: Aultman
(40.9284°N, 81.4173°W)
Time: 09:34:07
(UTC+00:00)

Cosmos 1818 - Pass Details

Date: 24 January 2021
Orbit: 773 x 800 km, 65.0° (Epoch: 02 March)

Event Time Altitude Azimuth Distance (km) Brightness Sun altitude
Rises 22:59:31 0° 216° (SW) 3,260 7.8 -5.4°
Reaches altitude 10° 23:01:56 10° 218° (SW) 2,339 7.1 -5.8°
Maximum altitude 23:07:18 73° 303° (WNW) 828 3.8 -6.8°
Drops below altitude 10° 23:12:45 10° 29° (NNE) 2,371 5.6 -7.7°
Enters shadow 23:14:51 - 31° (NNE) 3,167 6.2 -8.1°
